Change the Weather History Date:

Tuesday, December 24, 2013

  Actual Average Record
Temperature  
Mean Temperature 12 °F 30 °F  
Max Temperature 19 °F 37 °F 68 °F (1889)
Min Temperature 5 °F 22 °F -17 °F (1983)
Degree Days  
Heating Degree Days 53 36  
Month to date heating degree days 837 781  
Since 1 July heating degree days 1981 1823  
Cooling Degree Days 0 0  
Month to date cooling degree days 0 0  
Year to date cooling degree days 1160 1066  
Moisture  
Dew Point 5 °F    
Average Humidity 71    
Maximum Humidity 80    
Minimum Humidity 61    
Precipitation  
Precipitation T in 0.10 in 1.54 in (1964)
Month to date precipitation 4.44 2.45  
Year to date precipitation 45.92 41.72  
Snow  
Snow T in 0.20 in 5.90 in (2002)
Month to date snowfall 8.8 4.9  
Since 1 July snowfall 8.9 6.0  
Snow Depth 0.00 in    
Sea Level Pressure  
Sea Level Pressure 30.54 in    
Wind  
Wind Speed 9 mph (WSW)    
Max Wind Speed 20 mph    
Max Gust Speed 24 mph    
Visibility 10 miles    
Events Snow    
T = Trace of Precipitation, MM = Missing Value Source: NWS Daily Summary

Daily Weather History Graph

Daily Weather History Graph

Search for Another Location

Airport or City:

Trip Planner

Search our weather history database for the weather conditions in past years. The results will help you decide how hot, cold, wet, or windy it might be!

Date:

Astronomy

Dec. 24, 2013 Rise Set
Actual Time 8:04 AM EST 5:25 PM EST
Civil Twilight 7:33 AM EST 5:56 PM EST
Nautical Twilight 6:59 AM EST 6:30 PM EST
Astronomical Twilight 6:26 AM EST 7:03 PM EST
Moon No Moon Rise 11:59 AM EST (12/24)
Length of Visible Light 10h 22m
Length of Day
9h 21m
Waning Gibbous, 59% of the Moon is Illuminated
Dec 24
Waning Gibbous
Dec 25
Last Quarter
Jan 1
New
Jan 7
First Quarter
Jan 15
Full

Hourly Weather History & Observations

Time (EST) Temp. Windchill Dew Point Humidity Pressure Visibility Wind Dir Wind Speed Gust Speed Precip Events Conditions
12:54 AM 12.9 °F -2.2 °F 5.0 °F 71% 30.47 in 9.0 mi WNW 13.8 mph - 0.00 in Snow Light Snow
1:54 AM 12.0 °F -2.7 °F 3.9 °F 70% 30.47 in 9.0 mi WNW 12.7 mph - 0.00 in Snow Light Snow
2:54 AM 12.0 °F -4.0 °F 5.0 °F 73% 30.48 in 9.0 mi West 15.0 mph - 0.00 in Snow Light Snow
3:54 AM 10.0 °F -7.1 °F 3.0 °F 73% 30.50 in 9.0 mi West 16.1 mph - 0.00 in Snow Light Snow
4:54 AM 10.0 °F -6.5 °F 3.0 °F 73% 30.50 in 9.0 mi West 15.0 mph - 0.00 in Snow Light Snow
5:54 AM 8.1 °F -7.7 °F 3.9 °F 83% 30.51 in 7.0 mi NW 12.7 mph - 0.00 in Snow Light Snow
6:54 AM 7.0 °F -7.5 °F 1.9 °F 80% 30.54 in 9.0 mi WNW 10.4 mph - 0.00 in Snow Light Snow
7:54 AM 6.1 °F -10.9 °F -0.0 °F 76% 30.56 in 9.0 mi West 13.8 mph - 0.00 in   Mostly Cloudy
8:17 AM 5.0 °F -10.0 °F -0.4 °F 78% 30.52 in 10.0 mi West 10.4 mph - N/A   Partly Cloudy
8:54 AM 7.0 °F -6.6 °F 1.0 °F 77% 30.58 in 10.0 mi West 9.2 mph - N/A   Partly Cloudy
9:12 AM 6.8 °F -7.8 °F -0.4 °F 72% 30.55 in 10.0 mi West 10.4 mph - N/A   Mostly Cloudy
9:54 AM 7.0 °F -3.3 °F -0.0 °F 73% 30.60 in 10.0 mi WNW 5.8 mph - N/A   Mostly Cloudy
10:17 AM 8.6 °F -4.7 °F 1.4 °F 73% 30.55 in 10.0 mi West 9.2 mph - N/A   Scattered Clouds
10:54 AM 10.0 °F -1.9 °F 1.9 °F 70% 30.61 in 10.0 mi WSW 8.1 mph - N/A   Partly Cloudy
11:54 AM 12.0 °F -0.4 °F 3.0 °F 67% 30.61 in 10.0 mi West 9.2 mph - N/A   Partly Cloudy
12:54 PM 12.9 °F 3.8 °F 3.9 °F 67% 30.60 in 10.0 mi WSW 5.8 mph - N/A   Partly Cloudy
1:54 PM 15.1 °F 9.4 °F 5.0 °F 64% 30.58 in 10.0 mi Variable 3.5 mph - N/A   Partly Cloudy
2:54 PM 16.0 °F 10.4 °F 6.1 °F 65% 30.57 in 10.0 mi South 3.5 mph - N/A   Partly Cloudy
3:54 PM 17.1 °F - 7.0 °F 65% 30.56 in 10.0 mi Calm Calm - N/A   Partly Cloudy
4:54 PM 18.0 °F - 7.0 °F 62% 30.56 in 10.0 mi Calm Calm - N/A   Partly Cloudy
5:54 PM 15.1 °F 7.7 °F 7.0 °F 70% 30.56 in 10.0 mi SSE 4.6 mph - N/A   Partly Cloudy
6:54 PM 15.1 °F 6.4 °F 8.1 °F 74% 30.54 in 10.0 mi SE 5.8 mph - N/A   Partly Cloudy
7:54 PM 15.1 °F 6.4 °F 8.1 °F 74% 30.55 in 10.0 mi SE 5.8 mph - N/A   Scattered Clouds
8:54 PM 16.0 °F 6.3 °F 9.0 °F 74% 30.54 in 10.0 mi SE 6.9 mph - N/A   Mostly Cloudy
9:54 PM 16.0 °F 6.3 °F 10.0 °F 77% 30.52 in 10.0 mi SE 6.9 mph - N/A   Mostly Cloudy
10:54 PM 16.0 °F 4.4 °F 10.0 °F 77% 30.50 in 10.0 mi SE 9.2 mph - N/A   Mostly Cloudy
11:54 PM 18.0 °F 5.4 °F 10.9 °F 74% 30.45 in 10.0 mi SE 11.5 mph - N/A   Overcast